When you browse on this site, cookies collect data to enhance your experience and personalize the content and advertising you see.
Visit our Privacy Policy to learn more. By continuing to use the site, you agree to this use of cookies and data.
  • In Belgien
  • Länderverzeichnis
  • Für 7 Tage
  • Wassertemperatur
  • Wetterkarte
  • Widgets
  • user-avatar
    Anmelden

    Stündliche Wetter Albany

    Heute, 26 Mai, Dienstag

    Zeit Temperatur Niederschläge Wind Luftdruck Luftfeuchtigkeit
    00:00 +8°C° 0.2 mm 9 m/S 754 mmHg 76%
    01:00 +9°C° 0.2 mm 8 m/S 754 mmHg 77%
    02:00 +9°C° 0 mm 8 m/S 755 mmHg 78%
    03:00 +9°C° 0.1 mm 8 m/S 755 mmHg 78%
    04:00 +10°C° 0.1 mm 8 m/S 756 mmHg 78%
    05:00 +10°C° 0.1 mm 8 m/S 756 mmHg 77%
    06:00 +10°C° 0.1 mm 7 m/S 757 mmHg 78%
    07:00 +10°C° 0.1 mm 7 m/S 757 mmHg 79%
    08:00 +10°C° 0 mm 7 m/S 758 mmHg 82%
    09:00 +11°C° 0.1 mm 6 m/S 758 mmHg 79%
    10:00 +13°C° 0.1 mm 6 m/S 758 mmHg 76%
    11:00 +13°C° 0.1 mm 5 m/S 759 mmHg 73%
    12:00 +14°C° 0.1 mm 5 m/S 758 mmHg 72%
    13:00 +14°C° 0.1 mm 5 m/S 758 mmHg 70%
    14:00 +14°C° 0.1 mm 5 m/S 758 mmHg 69%
    15:00 +14°C° 0.1 mm 5 m/S 758 mmHg 71%
    16:00 +14°C° 0.1 mm 4 m/S 759 mmHg 74%
    17:00 +13°C° 0.1 mm 4 m/S 759 mmHg 76%
    18:00 +12°C° 0.1 mm 4 m/S 759 mmHg 80%
    19:00 +11°C° 0.1 mm 4 m/S 759 mmHg 84%
    20:00 +9°C° 0.1 mm 5 m/S 759 mmHg 88%
    21:00 +10°C° 0 mm 5 m/S 759 mmHg 87%
    22:00 +10°C° 0 mm 5 m/S 759 mmHg 86%
    23:00 +10°C° 0 mm 6 m/S 759 mmHg 84%

    Morgen, 27 Mai, Mittwoch

    Zeit Temperatur Niederschläge Wind Luftdruck Luftfeuchtigkeit
    00:00 +10°C° 0 mm 6 m/S 759 mmHg 85%
    01:00 +10°C° 0 mm 6 m/S 759 mmHg 86%
    02:00 +9°C° 0 mm 6 m/S 758 mmHg 86%
    03:00 +10°C° 0 mm 6 m/S 758 mmHg 86%
    04:00 +10°C° 0 mm 6 m/S 758 mmHg 85%
    05:00 +10°C° 0 mm 7 m/S 758 mmHg 85%
    06:00 +10°C° 0 mm 7 m/S 758 mmHg 83%
    07:00 +11°C° 0 mm 7 m/S 758 mmHg 82%
    08:00 +11°C° 0 mm 7 m/S 758 mmHg 80%
    09:00 +13°C° 0 mm 8 m/S 758 mmHg 74%
    10:00 +15°C° 0 mm 8 m/S 758 mmHg 67%
    11:00 +17°C° 0 mm 9 m/S 758 mmHg 61%
    12:00 +18°C° 0 mm 8 m/S 757 mmHg 59%
    13:00 +18°C° 0 mm 8 m/S 756 mmHg 58%
    14:00 +20°C° 0 mm 8 m/S 756 mmHg 56%
    15:00 +18°C° 0 mm 8 m/S 756 mmHg 59%
    16:00 +17°C° 0 mm 7 m/S 756 mmHg 61%
    17:00 +16°C° 0 mm 6 m/S 756 mmHg 64%
    18:00 +15°C° 0.1 mm 7 m/S 757 mmHg 67%
    19:00 +15°C° 0.1 mm 7 m/S 757 mmHg 70%
    20:00 +14°C° 0.1 mm 7 m/S 757 mmHg 73%
    21:00 +14°C° 0.5 mm 6 m/S 757 mmHg 79%
    22:00 +14°C° 0.5 mm 5 m/S 758 mmHg 84%
    23:00 +14°C° 0.5 mm 4 m/S 758 mmHg 90%

    übermorgen, 28 Mai, Donnerstag

    Zeit Temperatur Niederschläge Wind Luftdruck Luftfeuchtigkeit
    00:00 +13°C° 0.5 mm 4 m/S 757 mmHg 91%
    01:00 +13°C° 0.5 mm 4 m/S 757 mmHg 92%
    02:00 +13°C° 0.5 mm 4 m/S 757 mmHg 92%
    03:00 +13°C° 0.2 mm 4 m/S 757 mmHg 93%
    04:00 +13°C° 0.2 mm 4 m/S 757 mmHg 93%
    05:00 +13°C° 0.2 mm 4 m/S 757 mmHg 93%
    06:00 +13°C° 0 mm 4 m/S 757 mmHg 92%
    07:00 +13°C° 0 mm 5 m/S 757 mmHg 92%
    08:00 +13°C° 0 mm 5 m/S 757 mmHg 92%
    09:00 +14°C° 0 mm 6 m/S 757 mmHg 86%
    10:00 +16°C° 0 mm 6 m/S 757 mmHg 79%
    11:00 +17°C° 0 mm 7 m/S 756 mmHg 73%
    12:00 +17°C° 0.2 mm 7 m/S 756 mmHg 74%
    13:00 +17°C° 0.2 mm 6 m/S 755 mmHg 74%
    14:00 +17°C° 0.2 mm 6 m/S 754 mmHg 74%
    15:00 +17°C° 0.1 mm 6 m/S 754 mmHg 76%
    16:00 +16°C° 0.1 mm 6 m/S 754 mmHg 78%
    17:00 +16°C° 0.1 mm 5 m/S 754 mmHg 80%
    18:00 +15°C° 0.1 mm 6 m/S 754 mmHg 82%
    19:00 +15°C° 0.1 mm 6 m/S 754 mmHg 85%
    20:00 +14°C° 0.1 mm 6 m/S 754 mmHg 87%
    21:00 +14°C° 0 mm 6 m/S 754 mmHg 87%
    22:00 +14°C° 0 mm 7 m/S 753 mmHg 87%
    23:00 +14°C° 0 mm 7 m/S 753 mmHg 88%

    29 Mai, Freitag

    Zeit Temperatur Niederschläge Wind Luftdruck Luftfeuchtigkeit
    00:00 +14°C° 0 mm 7 m/S 753 mmHg 87%
    01:00 +14°C° 0 mm 7 m/S 752 mmHg 86%
    02:00 +13°C° 0 mm 8 m/S 751 mmHg 86%
    03:00 +13°C° 0 mm 8 m/S 751 mmHg 85%
    04:00 +13°C° 0 mm 8 m/S 750 mmHg 84%
    05:00 +13°C° 0 mm 8 m/S 750 mmHg 83%
    06:00 +13°C° 0.1 mm 9 m/S 750 mmHg 82%
    07:00 +15°C° 0.1 mm 9 m/S 750 mmHg 81%
    08:00 +15°C° 0.1 mm 9 m/S 750 mmHg 79%
    09:00 +15°C° 0.6 mm 9 m/S 750 mmHg 79%
    10:00 +16°C° 0.6 mm 9 m/S 749 mmHg 78%
    11:00 +16°C° 0.6 mm 9 m/S 749 mmHg 77%
    12:00 +13°C° 0.9 mm 9 m/S 749 mmHg 80%
    13:00 +12°C° 0.9 mm 9 m/S 749 mmHg 83%
    14:00 +10°C° 0.9 mm 9 m/S 748 mmHg 85%
    15:00 +10°C° 1.2 mm 8 m/S 749 mmHg 86%
    16:00 +10°C° 1.2 mm 7 m/S 749 mmHg 86%
    17:00 +10°C° 1.2 mm 7 m/S 749 mmHg 87%
    18:00 +10°C° 0.9 mm 7 m/S 750 mmHg 86%
    19:00 +9°C° 0.9 mm 7 m/S 751 mmHg 85%
    20:00 +9°C° 0.9 mm 7 m/S 751 mmHg 84%
    21:00 +8°C° 0.4 mm 7 m/S 752 mmHg 84%
    22:00 +8°C° 0.4 mm 7 m/S 752 mmHg 84%
    23:00 +6°C° 0.4 mm 7 m/S 753 mmHg 85%

    30 Mai, Samstag

    Zeit Temperatur Niederschläge Wind Luftdruck Luftfeuchtigkeit
    00:00 +6°C° 0.5 mm 7 m/S 753 mmHg 84%
    01:00 +6°C° 0.5 mm 7 m/S 754 mmHg 83%
    02:00 +6°C° 0.5 mm 7 m/S 754 mmHg 82%
    03:00 +6°C° 0.2 mm 7 m/S 755 mmHg 81%
    04:00 +6°C° 0.2 mm 7 m/S 755 mmHg 79%
    05:00 +5°C° 0.2 mm 7 m/S 756 mmHg 78%
    06:00 +7°C° 0.1 mm 6 m/S 757 mmHg 77%
    07:00 +7°C° 0.1 mm 6 m/S 757 mmHg 76%
    08:00 +7°C° 0.1 mm 6 m/S 758 mmHg 75%
    09:00 +8°C° 0 mm 6 m/S 758 mmHg 71%
    10:00 +9°C° 0 mm 5 m/S 759 mmHg 67%
    11:00 +10°C° 0 mm 5 m/S 759 mmHg 63%
    12:00 +10°C° 0.1 mm 5 m/S 759 mmHg 64%
    13:00 +10°C° 0.1 mm 5 m/S 759 mmHg 65%
    14:00 +10°C° 0.1 mm 5 m/S 758 mmHg 66%
    15:00 +10°C° 0.1 mm 5 m/S 758 mmHg 69%
    16:00 +10°C° 0.1 mm 5 m/S 758 mmHg 72%
    17:00 +10°C° 0.1 mm 5 m/S 759 mmHg 75%
    18:00 +9°C° 0.1 mm 5 m/S 759 mmHg 78%
    19:00 +9°C° 0.1 mm 5 m/S 759 mmHg 81%
    20:00 +8°C° 0.1 mm 5 m/S 759 mmHg 84%
    21:00 +8°C° 0 mm 5 m/S 759 mmHg 84%
    22:00 +8°C° 0 mm 6 m/S 759 mmHg 84%
    23:00 +8°C° 0 mm 6 m/S 759 mmHg 84%

    31 Mai, Sonntag

    Zeit Temperatur Niederschläge Wind Luftdruck Luftfeuchtigkeit
    00:00 +9°C° 0.1 mm 6 m/S 759 mmHg 83%
    01:00 +9°C° 0.1 mm 6 m/S 759 mmHg 81%
    02:00 +9°C° 0.1 mm 7 m/S 759 mmHg 80%
    03:00 +9°C° 0 mm 6 m/S 759 mmHg 82%
    04:00 +9°C° 0 mm 6 m/S 759 mmHg 83%
    05:00 +9°C° 0 mm 6 m/S 759 mmHg 85%
    06:00 +9°C° 0.1 mm 6 m/S 759 mmHg 85%
    07:00 +10°C° 0.1 mm 6 m/S 760 mmHg 86%
    08:00 +10°C° 0.1 mm 6 m/S 760 mmHg 86%
    09:00 +13°C° 0.1 mm 6 m/S 760 mmHg 80%
    10:00 +14°C° 0.1 mm 6 m/S 761 mmHg 74%
    11:00 +16°C° 0.1 mm 6 m/S 761 mmHg 68%
    12:00 +16°C° 0.2 mm 6 m/S 761 mmHg 69%
    13:00 +16°C° 0.2 mm 6 m/S 760 mmHg 69%
    14:00 +17°C° 0.2 mm 5 m/S 760 mmHg 70%
    15:00 +16°C° 0.1 mm 5 m/S 761 mmHg 75%
    16:00 +15°C° 0.1 mm 4 m/S 761 mmHg 80%
    17:00 +14°C° 0.1 mm 3 m/S 761 mmHg 85%
    18:00 +13°C° 0.1 mm 3 m/S 762 mmHg 86%
    19:00 +13°C° 0.1 mm 3 m/S 762 mmHg 88%
    20:00 +12°C° 0.1 mm 3 m/S 763 mmHg 89%
    21:00 +12°C° 0.1 mm 3 m/S 763 mmHg 89%
    22:00 +13°C° 0.1 mm 3 m/S 763 mmHg 89%
    23:00 +13°C° 0.1 mm 4 m/S 763 mmHg 90%
    Mehr zeigen